Location: San Antonio de Areco
(34.2500°S, 59.4670°W)
Time: 00:24:34
(UTC-03:00)

ISS - Visible Passes

Search period start: 29 March 2017 00:00
Search period end: 08 April 2017 00:00
Orbit: 399 x 409 km, 51.6° (Epoch: 29 March)

Date Brightness Start Highest point End Pass type
(mag) Time Alt. Az. Time Alt. Az. Time Alt. Az.
29 Mar -0.7 06:32:47 10° NNE 06:34:39 14° NE 06:36:31 10° E visible
31 Mar -2.4 06:22:59 10° NNW 06:26:06 38° NE 06:29:15 10° ESE visible
01 Apr -1.2 05:31:57 12° NNE 05:33:51 18° NE 05:36:14 10° E visible
02 Apr -3.8 06:15:14 17° NW 06:17:40 70° SW 06:21:02 10° SE visible
03 Apr -2.9 05:25:37 48° ENE 05:25:37 48° ENE 05:28:33 10° ESE visible
04 Apr -2.6 06:08:30 24° WSW 06:09:20 27° SW 06:12:18 10° SSE visible
05 Apr -1.7 05:18:34 24° SSE 05:18:34 24° SSE 05:20:07 10° SE visible
06 Apr -1.6 06:01:11 14° SSW 06:01:11 14° SSW 06:03:03 10° S visible
07 Apr -0.7 05:11:02 11° SSE 05:11:02 11° SSE 05:11:12 10° SSE visible
